FloripaSat 1
1 44885U 19093G   25176.50658431  .00003249  00000-0  27563-3 0  9998
2 44885  97.8158 264.1401 0011523 150.0520 210.1364 14.98604443299136
RS-44
1 44909U 19096E   25176.50259915  .00000036  00000-0  10703-3 0  9991
2 44909  82.5203 216.6996 0216274 258.2955  99.3807 12.79741443256725
UPMSat 2
1 46276U 20061E   25176.17702768  .00050662  00000-0  41026-3 0  9998
2 46276  97.2434 251.1048 0002337 154.9261 205.2116 15.70647018267911
SALSAT
1 46495U 20068K   25176.38602628  .00004307  00000-0  18655-3 0  9992
2 46495  97.8606 155.1469 0013080 105.7299 254.5380 15.22919010260939
CubeSX-Sirius-HSE
1 47951U 21022V   25157.62701764  .07883385  25648-5  89537-3 0  9993
2 47951  97.4004  72.1904 0010275 223.9924 136.0557 16.36879307233400
CubeSX-HSE
1 47952U 21022W   25157.69972699  .06655353  25454-5  93288-3 0  9992
2 47952  97.3980  72.5414 0010307 219.3637 140.6911 16.34906352233436
GRBAlpha
1 47959U 21022AD  25160.45426279  .07940347  25506-5  90589-3 0  9995
2 47959  97.3899  75.6235 0011032 227.2558 132.7812 16.36806138232695
TUBIN
1 48900U 21059X   25176.55547862  .00029679  00000-0  34391-3 0  9997
2 48900  97.6746 347.0960 0004152 164.7031 195.4352 15.61772281222538
LEDSAT
1 49069U 21073D   25176.19667351  .00044221  00000-0  49311-3 0  9994
2 49069  97.3890 258.4083 0007449  25.6038 334.5587 15.62662565213874
CUTE
1 49263U 21088D   25176.20348689  .00019673  00000-0  38461-3 0  9995
2 49263  97.4522 252.9168 0008453 176.3941 183.7371 15.47447074206842
TeikyoSat 4
1 49396U 21102B   25176.01519525  .00001013  00000-0  70182-4 0  9993
2 49396  97.4091 213.8864 0014222  82.0998 278.1844 15.07696643198876
Z-Sat
1 49399U 21102E   25176.54195656  .00002713  00000-0  15016-3 0  9991
2 49399  97.3788 217.5885 0019314  52.7586 307.5405 15.14524794199392
KOSEN 1
1 49402U 21102H   25176.40048869  .00004603  00000-0  21320-3 0  9999
2 49402  97.3693 220.9864 0016389  29.9759 330.2412 15.20472839199697
HO-113
1 50466U 21131B   25176.59432080  .00000321  00000-0  11408-3 0  9994
2 50466  98.5108 265.8690 0005444  90.8746 269.3067 14.40830423183757
Foresail-1
1 52766U 22057AL  25176.51155373  .10154757  26901-5  38311-3 0  9995
2 52766  97.5996 331.0779 0014774 262.8964 141.8495 16.42597145172469
SNUGLITE 2
1 52899U 22065F   25176.35489241  .00000671  00000-0  13934-3 0  9992
2 52899  98.1706 318.1762 0008783  68.7897 291.4243 14.63244413158792
UmKA 1 (RS40S)
1 57172U 23091G   25176.58593890  .00003277  00000-0  17633-3 0  9997
2 57172  97.5573 231.8853 0012682 279.7365  80.2435 15.15499829109902
CubeBel-2 (EU11S)
1 57175U 23091K   25176.57335655  .00005673  00000-0  26959-3 0  9995
2 57175  97.5572 233.1171 0010396 287.6104  72.3995 15.19572451109989
VERONIKA
1 58261U 23174F   25176.49202319  .00124250  00000-0  83238-3 0  9991
2 58261  97.4113 263.6762 0002862 274.8476  85.2462 15.74890741 91189
ENSO
1 58470U 23185J   25176.57929371  .00036326  00000-0  49586-3 0  9992
2 58470  97.3736 252.2286 0005676  34.5407 325.6216 15.57386334 87527
EIRSAT-1
1 58472U 23185L   25176.58803447  .00083305  00000-0  67280-3 0  9990
2 58472  97.3678 254.4358 0002166  36.4758 323.6652 15.70595797 87677
SONATE-2
1 59112U 24043Q   25175.93443700  .00010928  00000-0  31145-3 0  9998
2 59112  97.5153 307.4256 0011855  64.5862 295.6607 15.36192486 72692
MO-122
1 60209U 24125G   25176.14078106  .00010748  00000-0  30119-3 0  9996
2 60209  97.2772  27.5885 0020226  83.3236 277.0310 15.36573689 54344
GRBBeta
1 60237U 24128C   25176.57301392  .00002609  00000-0  20419-3 0  9992
2 60237  61.9921  23.7904 0053190  61.1393 299.5021 15.02753264 52600
Curium One
1 60242U 24128H   25176.31703581  .00004811  00000-0  33901-3 0  9993
2 60242  61.9821  22.7426 0053025  57.2749 303.3439 15.05313887 52604
ROBUSTA-3A
1 60243U 24128J   25175.99237067  .00004945  00000-0  35289-3 0  9997
2 60243  61.9891  24.7595 0051888  54.8798 305.7141 15.04840660 52545
CatSat
1 60246U 24125J   25176.31739246  .00006488  00000-0  21543-3 0  9992
2 60246  97.2571  26.7974 0043188  40.2553 320.1872 15.30639853 52394
HYPERVIEW-1G (RS66S)
1 61772U 24199AP  25176.57412436  .00012447  00000-0  35572-3 0  9994
2 61772  97.3514  45.4033 0015061 131.2250 229.0294 15.36018405 79412
AO-123
1 61781U 24199AY  25176.55413365  .00004055  00000-0  14816-3 0  9998
2 61781  97.3528  44.0978 0017000 136.8162 223.4414 15.28536319 79320
ZIMSAT 2
1 61783U 24199BA  25176.57036347  .00021920  00000-0  51998-3 0  9995
2 61783  97.3488  46.1381 0014982 128.3518 231.9078 15.41619634 82618
HADES-R (SO-124)
1 62690U 25009CK  25176.50623186  .00020621  00000-0  71009-3 0  9992
2 62690  97.4097 257.2585 0002979  70.2970 289.8592 15.30063269 24584
HYDRA-T
1 62692U 25009CM  25176.16199349  .00022179  00000-0  75721-3 0  9990
2 62692  97.4098 256.9552 0002706  67.6441 292.5086 15.30328595 24538
JINJUSat 1B
1 63210U 25052A   25176.18933750  .00006800  00000-0  31037-3 0  9994
2 63210  97.4408  70.1169 0002313 265.3603  94.7368 15.20926752 15624
NUSHSAT 1
1 63211U 25052B   25176.51067629  .00007391  00000-0  33449-3 0  9990
2 63211  97.4397  70.4391 0002249 273.6763  86.4215 15.21189961 15677
TEVEL2-4
1 63213U 25052D   25176.19848233  .00006694  00000-0  30603-3 0  9998
2 63213  97.4316  69.9835 0001671 315.2773  44.8328 15.20875598 15623
TEVEL2-5
1 63214U 25052E   25176.46244757  .00007018  00000-0  32084-3 0  9996
2 63214  97.4315  70.2423 0001702 313.9087  46.2007 15.20858541 15662
TEVEL2-6
1 63215U 25052F   25176.46500455  .00007197  00000-0  32933-3 0  9998
2 63215  97.4315  70.2403 0001747 314.9518  45.1575 15.20818728 15661
TEVEL2-1
1 63217U 25052H   25176.14932818  .00005999  00000-0  27684-3 0  9992
2 63217  97.4292  69.8657 0002326 338.0205  22.0930 15.20593404 15611
TEVEL2-2
1 63218U 25052J   25176.14962331  .00006140  00000-0  28327-3 0  9990
2 63218  97.4296  69.8667 0002284 340.2228  19.8918 15.20595254 15615
TEVEL2-3
1 63219U 25052K   25175.68915776  .00006758  00000-0  31156-3 0  9999
2 63219  97.4291  69.4115 0002414 340.5923  19.5220 15.20583464 15540
TEVEL2-8
1 63237U 25052AD  25176.16174820  .00006304  00000-0  30099-3 0  9992
2 63237  97.4357  69.7816 0006971 333.9171  26.1712 15.19378070 15607
TEVEL2-9
1 63238U 25052AE  25176.42815736  .00006405  00000-0  30630-3 0  9993
2 63238  97.4357  70.0394 0007045 332.5292  27.5569 15.19318490 15645
TEVEL2-7
1 63239U 25052AF  25176.43046729  .00006431  00000-0  30783-3 0  9991
2 63239  97.4357  70.0351 0007052 333.1626  26.9243 15.19284478 15645
HYDRA-W
1 63490U 25052BL  25176.43929382  .00016010  00000-0  66389-3 0  9990
2 63490  97.4305  70.4133 0010072 325.5533  34.5050 15.23914749 15677
HADES-ICM (SO-125)
1 63492U 25052BN  25175.93340551  .00015845  00000-0  66642-3 0  9998
2 63492  97.4309  69.8739 0010543 331.3092  28.7563 15.23434283 15590
